QPF
0.03 0.02 0.02 0.01 0.01 0.01 0.01 0.01 0.01 0.01 0.01 0.02 0.02 0.02 0.02 0.01 0.01 0.01 0.02 0.03 0.03 0.03 0.02 0.02 0.02 0.03 0.04 0.03 0.05 0.06 0.08 0.08 0.07 0.05 0.05 0.04 0.03 0.02 0.02 0.01 0.02 0.02 0.02
0.03 0.03 0.02 0.01 0.01 0.02 0.01 0.01 0.03 0.02 0.02 0.02 0.02 0.02 0.02 0.02 0.02 0.02 0.03 0.03 0.04 0.04 0.03 0.03 0.02 0.04 0.04 0.04 0.05 0.06 0.06 0.07 0.07 0.06 0.06 0.04 0.03 0.02 0.01 0.01 0.01 0.02 0.02
0.04 0.03 0.02 0.01 0.02 0.02 0.01 0.02 0.03 0.02 0.02 0.02 0.02 0.03 0.03 0.02 0.02 0.03 0.04 0.04 0.04 0.04 0.03 0.03 0.03 0.04 0.04 0.04 0.05 0.05 0.06 0.07 0.06 0.05 0.04 0.04 0.03 0.03 0.03 0.02 0.01 0.01 0.01
0.04 0.04 0.03 0.02 0.03 0.03 0.03 0.03 0.03 0.02 0.02 0.03 0.04 0.04 0.04 0.03 0.03 0.03 0.04 0.04 0.04 0.04 0.04 0.04 0.06 0.07 0.07 0.06 0.07 0.09 0.12 0.11 0.08 0.05 0.03 0.03 0.04 0.03 0.03 0.03 0.02 0.01 0.01
0.05 0.05 0.05 0.04 0.05 0.06 0.06 0.05 0.05 0.05 0.05 0.05 0.04 0.03 0.03 0.05 0.06 0.05 0.05 0.06 0.06 0.06 0.07 0.07 0.07 0.08 0.08 0.08 0.09 0.10 0.10 0.06 0.05 0.04 0.03 0.04 0.04 0.05 0.03 0.02 0.02 0.02 0.01
0.04 0.05 0.05 0.05 0.05 0.05 0.05 0.05 0.06 0.07 0.09 0.10 0.11 0.09 0.06 0.06 0.06 0.06 0.06 0.07 0.08 0.06 0.05 0.05 0.06 0.08 0.09 0.10 0.10 0.10 0.09 0.05 0.04 0.05 0.05 0.04 0.04 0.04 0.03 0.02 0.02 0.01 0.01
0.04 0.05 0.04 0.04 0.03 0.03 0.03 0.04 0.06 0.08 0.10 0.12 0.12 0.11 0.09 0.07 0.05 0.04 0.04 0.04 0.04 0.03 0.05 0.06 0.06 0.06 0.07 0.07 0.06 0.05 0.04 0.04 0.04 0.03 0.04 0.03 0.02 0.03 0.03 0.03 0.02 0.02 0.01
0.04 0.04 0.04 0.02 0.02 0.02 0.02 0.03 0.04 0.05 0.06 0.06 0.06 0.06 0.05 0.03 0.02 0.01 0.02 0.03 0.03 0.04 0.07 0.07 0.07 0.07 0.08 0.07 0.06 0.04 0.03 0.03 0.03 0.03 0.02 0.01 0.01 0.01 0.02 0.02 0.02 0.02 0.01
0.04 0.04 0.04 0.03 0.03 0.04 0.05 0.05 0.05 0.05 0.05 0.04 0.04 0.04 0.02 0.01 0.01 0.01 0.02 0.03 0.03 0.03 0.03 0.03 0.02 0.02 0.03 0.03 0.03 0.03 0.02 0.03 0.04 0.04 0.02 0.02 0.01 0.01 0.03 0.04 0.03 0.04 0.02
0.08 0.08 0.08 0.09 0.08 0.07 0.07 0.07 0.06 0.05 0.05 0.05 0.05 0.05 0.03 0.03 0.03 0.03 0.04 0.04 0.03 0.02 0.01 0.01 0.01 0.01 0.01 0.01 0.01 0.01 0.01 0.02 0.02 0.02 0.02 0.01 0.01 0.01 0.02 0.03 0.04 0.04 0.02
0.09 0.11 0.10 0.09 0.10 0.09 0.08 0.06 0.04 0.04 0.05 0.06 0.07 0.06 0.05 0.04 0.04 0.04 0.03 0.03 0.03 0.02 0.01 0.00 0.00 0.00 0.00 0.01 0.01 0.01 0.01 0.01 0.01 0.01 0.01 0.01 0.01 0.01 0.01 0.02 0.03 0.04 0.03
0.05 0.05 0.06 0.06 0.07 0.08 0.07 0.06 0.05 0.04 0.04 0.04 0.04 0.05 0.05 0.05 0.05 0.05 0.03 0.03 0.02 0.01 0.01 0.01 0.00 0.00 0.00 0.01 0.01 0.01 0.01 0.01 0.01 0.01 0.01 0.01 0.01 0.01 0.01 0.02 0.02 0.03 0.03
0.04 0.03 0.04 0.05 0.05 0.06 0.07 0.07 0.06 0.06 0.04 0.04 0.03 0.03 0.03 0.04 0.06 0.06 0.03 0.02 0.02 0.02 0.01 0.01 0.01 0.01 0.01 0.01 0.01 0.01 0.02 0.01 0.01 0.01 0.01 0.01 0.01 0.01 0.01 0.01 0.02 0.02 0.03
0.02 0.03 0.03 0.04 0.04 0.04 0.04 0.04 0.05 0.05 0.06 0.05 0.04 0.03 0.03 0.04 0.06 0.07 0.04 0.03 0.03 0.03 0.02 0.02 0.02 0.02 0.02 0.02 0.02 0.02 0.02 0.01 0.01 0.01 0.01 0.01 0.01 0.01 0.02 0.01 0.02 0.02 0.02
0.02 0.02 0.02 0.02 0.02 0.03 0.03 0.04 0.05 0.03 0.04 0.04 0.04 0.03 0.04 0.04 0.05 0.08 0.06 0.04 0.04 0.05 0.05 0.05 0.03 0.03 0.03 0.02 0.02 0.02 0.02 0.01 0.01 0.01 0.01 0.01 0.01 0.01 0.02 0.02 0.02 0.03 0.03
0.01 0.01 0.01 0.01 0.01 0.02 0.02 0.02 0.03 0.03 0.02 0.03 0.03 0.04 0.03 0.03 0.04 0.05 0.06 0.06 0.06 0.06 0.06 0.04 0.03 0.03 0.03 0.02 0.03 0.03 0.03 0.03 0.02 0.02 0.02 0.02 0.02 0.02 0.03 0.03 0.04 0.04 0.04
0.01 0.01 0.01 0.01 0.01 0.02 0.02 0.01 0.02 0.02 0.03 0.02 0.02 0.02 0.02 0.02 0.03 0.03 0.04 0.05 0.05 0.05 0.05 0.04 0.03 0.03 0.03 0.03 0.03 0.03 0.03 0.04 0.04 0.04 0.04 0.04 0.04 0.05 0.06 0.05 0.05 0.05 0.05
0.01 0.01 0.01 0.01 0.01 0.01 0.01 0.02 0.03 0.03 0.03 0.03 0.03 0.03 0.02 0.03 0.04 0.04 0.05 0.05 0.05 0.06 0.06 0.04 0.03 0.03 0.03 0.03 0.03 0.02 0.03 0.04 0.05 0.05 0.06 0.06 0.06 0.06 0.06 0.07 0.07 0.06 0.06
0.01 0.01 0.01 0.01 0.01 0.01 0.02 0.02 0.03 0.03 0.04 0.03 0.04 0.05 0.05 0.04 0.03 0.03 0.03 0.03 0.04 0.04 0.05 0.06 0.06 0.06 0.06 0.06 0.06 0.05 0.05 0.06 0.07 0.07 0.06 0.05 0.06 0.06 0.06 0.07 0.08 0.07 0.07
0.02 0.02 0.02 0.02 0.03 0.03 0.03 0.04 0.05 0.05 0.05 0.05 0.04 0.05 0.04 0.03 0.02 0.02 0.02 0.02 0.04 0.05 0.05 0.05 0.05 0.05 0.06 0.06 0.07 0.07 0.08 0.07 0.07 0.08 0.08 0.08 0.08 0.07 0.08 0.08 0.09 0.09 0.09
0.04 0.05 0.05 0.04 0.04 0.04 0.04 0.05 0.07 0.07 0.07 0.06 0.05 0.05 0.04 0.04 0.03 0.03 0.02 0.02 0.03 0.05 0.07 0.07 0.06 0.04 0.04 0.05 0.05 0.05 0.05 0.06 0.06 0.07 0.08 0.09 0.10 0.10 0.09 0.09 0.09 0.09 0.07
0.04 0.05 0.07 0.08 0.06 0.05 0.06 0.07 0.07 0.06 0.05 0.04 0.04 0.04 0.04 0.04 0.04 0.03 0.03 0.02 0.02 0.03 0.05 0.06 0.08 0.07 0.06 0.06 0.06 0.06 0.04 0.04 0.03 0.04 0.04 0.05 0.05 0.07 0.08 0.09 0.09 0.09 0.08
0.04 0.05 0.06 0.08 0.08 0.07 0.06 0.06 0.06 0.05 0.04 0.03 0.03 0.03 0.03 0.03 0.03 0.02 0.02 0.02 0.02 0.02 0.03 0.03 0.04 0.05 0.05 0.06 0.07 0.07 0.07 0.06 0.05 0.05 0.05 0.05 0.05 0.05 0.05 0.06 0.07 0.07 0.08
0.03 0.03 0.04 0.04 0.05 0.06 0.07 0.07 0.05 0.04 0.04 0.03 0.02 0.02 0.02 0.02 0.02 0.02 0.02 0.02 0.02 0.02 0.02 0.02 0.02 0.02 0.02 0.03 0.04 0.05 0.05 0.06 0.07 0.07 0.07 0.07 0.07 0.06 0.06 0.06 0.06 0.06 0.05
0.03 0.03 0.03 0.04 0.05 0.05 0.06 0.06 0.05 0.04 0.03 0.03 0.03 0.03 0.03 0.03 0.02 0.02 0.02 0.02 0.02 0.02 0.02 0.02 0.02 0.01 0.01 0.01 0.02 0.03 0.04 0.05 0.06 0.07 0.07 0.07 0.07 0.08 0.08 0.08 0.07 0.06 0.05
0.04 0.04 0.04 0.04 0.05 0.05 0.05 0.04 0.04 0.03 0.03 0.03 0.02 0.03 0.03 0.03 0.03 0.02 0.02 0.02 0.03 0.02 0.02 0.02 0.02 0.02 0.01 0.01 0.02 0.02 0.04 0.05 0.06 0.06 0.05 0.06 0.07 0.08 0.09 0.12 0.13 0.11 0.07
MSLP
1011.29 1011.62 1011.98 1012.35 1012.65 1012.87 1013.00 1013.04 1013.03 1012.98 1012.95 1012.94 1012.97 1013.02 1013.08 1013.12 1013.13 1013.09 1013.01 1012.90 1012.77 1012.66 1012.59 1012.56 1012.60 1012.69 1012.83 1013.01 1013.19 1013.37 1013.53 1013.65 1013.72 1013.73 1013.68 1013.56 1013.38 1013.15 1012.90 1012.62 1012.36 1012.14 1011.96
1010.65 1010.94 1011.28 1011.64 1011.96 1012.22 1012.39 1012.48 1012.51 1012.50 1012.48 1012.47 1012.48 1012.50 1012.53 1012.56 1012.56 1012.53 1012.47 1012.38 1012.28 1012.18 1012.11 1012.07 1012.07 1012.14 1012.26 1012.42 1012.63 1012.86 1013.11 1013.34 1013.54 1013.70 1013.78 1013.78 1013.69 1013.52 1013.27 1012.98 1012.67 1012.36 1012.09
1009.95 1010.22 1010.55 1010.89 1011.21 1011.48 1011.69 1011.82 1011.89 1011.92 1011.93 1011.93 1011.93 1011.95 1011.98 1012.01 1012.02 1012.02 1011.99 1011.94 1011.87 1011.80 1011.73 1011.69 1011.68 1011.71 1011.80 1011.95 1012.16 1012.42 1012.71 1013.02 1013.33 1013.59 1013.80 1013.91 1013.93 1013.84 1013.65 1013.38 1013.06 1012.72 1012.39
1009.25 1009.50 1009.80 1010.12 1010.43 1010.70 1010.92 1011.08 1011.19 1011.25 1011.28 1011.31 1011.33 1011.36 1011.39 1011.43 1011.47 1011.50 1011.51 1011.51 1011.48 1011.45 1011.41 1011.37 1011.35 1011.37 1011.43 1011.55 1011.74 1011.99 1012.31 1012.65 1013.02 1013.37 1013.67 1013.89 1014.01 1014.02 1013.92 1013.71 1013.44 1013.12 1012.79
1008.61 1008.84 1009.10 1009.38 1009.65 1009.91 1010.11 1010.28 1010.40 1010.49 1010.56 1010.61 1010.65 1010.70 1010.75 1010.81 1010.87 1010.92 1010.97 1011.01 1011.03 1011.03 1011.03 1011.02 1011.01 1011.02 1011.06 1011.16 1011.32 1011.55 1011.85 1012.20 1012.59 1012.99 1013.36 1013.67 1013.89 1014.00 1014.01 1013.91 1013.73 1013.49 1013.21
1008.10 1008.28 1008.50 1008.72 1008.94 1009.14 1009.32 1009.47 1009.59 1009.70 1009.78 1009.85 1009.91 1009.97 1010.03 1010.09 1010.16 1010.23 1010.30 1010.37 1010.43 1010.48 1010.51 1010.53 1010.55 1010.57 1010.62 1010.70 1010.84 1011.05 1011.32 1011.66 1012.05 1012.46 1012.87 1013.24 1013.55 1013.77 1013.90 1013.93 1013.87 1013.75 1013.57
1007.74 1007.87 1008.02 1008.16 1008.31 1008.44 1008.57 1008.68 1008.79 1008.88 1008.97 1009.04 1009.11 1009.16 1009.22 1009.27 1009.33 1009.39 1009.47 1009.55 1009.63 1009.72 1009.79 1009.86 1009.93 1009.99 1010.06 1010.16 1010.29 1010.48 1010.73 1011.04 1011.41 1011.82 1012.24 1012.66 1013.04 1013.36 1013.60 1013.77 1013.85 1013.87 1013.82
1007.53 1007.61 1007.67 1007.73 1007.78 1007.83 1007.88 1007.95 1008.01 1008.09 1008.16 1008.22 1008.27 1008.30 1008.32 1008.34 1008.37 1008.40 1008.46 1008.54 1008.63 1008.75 1008.87 1009.00 1009.13 1009.26 1009.38 1009.52 1009.68 1009.88 1010.12 1010.41 1010.76 1011.15 1011.58 1012.01 1012.43 1012.83 1013.17 1013.46 1013.68 1013.84 1013.93
1007.43 1007.44 1007.41 1007.37 1007.33 1007.29 1007.26 1007.26 1007.28 1007.32 1007.35 1007.39 1007.40 1007.40 1007.38 1007.35 1007.32 1007.31 1007.33 1007.39 1007.49 1007.64 1007.81 1008.01 1008.21 1008.42 1008.63 1008.84 1009.06 1009.29 1009.55 1009.84 1010.17 1010.55 1010.96 1011.39 1011.84 1012.28 1012.69 1013.08 1013.41 1013.69 1013.91
1007.37 1007.29 1007.18 1007.04 1006.91 1006.78 1006.68 1006.61 1006.58 1006.57 1006.57 1006.56 1006.54 1006.49 1006.42 1006.33 1006.25 1006.19 1006.17 1006.21 1006.31 1006.47 1006.70 1006.96 1007.26 1007.57 1007.87 1008.18 1008.47 1008.76 1009.05 1009.36 1009.69 1010.06 1010.45 1010.87 1011.31 1011.77 1012.22 1012.67 1013.08 1013.45 1013.78
1007.27 1007.11 1006.91 1006.69 1006.47 1006.26 1006.10 1005.97 1005.89 1005.84 1005.80 1005.76 1005.69 1005.60 1005.48 1005.35 1005.22 1005.11 1005.06 1005.08 1005.18 1005.37 1005.63 1005.97 1006.35 1006.75 1007.16 1007.56 1007.95 1008.31 1008.65 1008.99 1009.33 1009.68 1010.06 1010.46 1010.88 1011.33 1011.79 1012.26 1012.71 1013.15 1013.54
1007.06 1006.83 1006.55 1006.26 1005.97 1005.71 1005.49 1005.32 1005.20 1005.12 1005.05 1004.98 1004.88 1004.76 1004.61 1004.45 1004.29 1004.16 1004.08 1004.09 1004.19 1004.40 1004.71 1005.09 1005.54 1006.03 1006.53 1007.02 1007.48 1007.91 1008.31 1008.68 1009.04 1009.39 1009.75 1010.13 1010.52 1010.95 1011.39 1011.85 1012.31 1012.77 1013.20
1006.74 1006.44 1006.10 1005.75 1005.41 1005.11 1004.85 1004.65 1004.51 1004.40 1004.31 1004.22 1004.12 1003.99 1003.83 1003.66 1003.49 1003.36 1003.28 1003.29 1003.40 1003.62 1003.94 1004.36 1004.85 1005.39 1005.95 1006.50 1007.02 1007.51 1007.95 1008.36 1008.74 1009.09 1009.44 1009.79 1010.17 1010.56 1010.97 1011.41 1011.86 1012.32 1012.76
1006.33 1005.96 1005.57 1005.18 1004.80 1004.47 1004.20 1003.98 1003.82 1003.70 1003.60 1003.51 1003.40 1003.28 1003.13 1002.98 1002.83 1002.71 1002.65 1002.67 1002.78 1003.01 1003.34 1003.76 1004.25 1004.80 1005.37 1005.95 1006.50 1007.02 1007.49 1007.93 1008.32 1008.69 1009.04 1009.38 1009.74 1010.10 1010.50 1010.91 1011.34 1011.79 1012.24
1005.88 1005.46 1005.02 1004.60 1004.20 1003.86 1003.57 1003.34 1003.16 1003.03 1002.93 1002.83 1002.74 1002.64 1002.52 1002.39 1002.27 1002.19 1002.15 1002.18 1002.30 1002.51 1002.82 1003.22 1003.68 1004.20 1004.75 1005.30 1005.85 1006.37 1006.85 1007.30 1007.72 1008.10 1008.46 1008.82 1009.17 1009.54 1009.92 1010.33 1010.75 1011.19 1011.64
1005.46 1004.99 1004.52 1004.07 1003.67 1003.30 1003.00 1002.75 1002.56 1002.42 1002.30 1002.21 1002.12 1002.04 1001.95 1001.86 1001.78 1001.73 1001.71 1001.76 1001.87 1002.07 1002.33 1002.67 1003.07 1003.53 1004.01 1004.52 1005.03 1005.52 1006.00 1006.46 1006.89 1007.30 1007.70 1008.08 1008.46 1008.85 1009.24 1009.66 1010.09 1010.54 1010.99
1005.12 1004.61 1004.12 1003.65 1003.23 1002.85 1002.53 1002.26 1002.04 1001.87 1001.74 1001.63 1001.54 1001.47 1001.40 1001.34 1001.30 1001.27 1001.29 1001.34 1001.44 1001.60 1001.81 1002.08 1002.41 1002.77 1003.18 1003.61 1004.06 1004.52 1004.98 1005.44 1005.89 1006.34 1006.77 1007.20 1007.63 1008.05 1008.49 1008.94 1009.39 1009.86 1010.34
1004.88 1004.35 1003.84 1003.36 1002.92 1002.52 1002.17 1001.87 1001.62 1001.41 1001.24 1001.10 1000.99 1000.91 1000.85 1000.81 1000.79 1000.80 1000.83 1000.88 1000.97 1001.10 1001.26 1001.46 1001.70 1001.98 1002.30 1002.65 1003.03 1003.45 1003.89 1004.34 1004.81 1005.29 1005.77 1006.25 1006.73 1007.21 1007.70 1008.19 1008.68 1009.19 1009.69
1004.74 1004.19 1003.67 1003.18 1002.73 1002.31 1001.93 1001.59 1001.29 1001.03 1000.81 1000.63 1000.49 1000.39 1000.33 1000.29 1000.29 1000.31 1000.35 1000.41 1000.49 1000.59 1000.71 1000.85 1001.02 1001.22 1001.46 1001.74 1002.07 1002.43 1002.84 1003.29 1003.77 1004.27 1004.78 1005.31 1005.84 1006.37 1006.90 1007.44 1007.98 1008.51 1009.05
1004.66 1004.12 1003.60 1003.11 1002.65 1002.21 1001.80 1001.42 1001.07 1000.75 1000.48 1000.25 1000.07 999.94 999.86 999.82 999.82 999.86 999.92 999.99 1000.07 1000.16 1000.25 1000.36 1000.48 1000.62 1000.79 1001.01 1001.28 1001.60 1001.98 1002.40 1002.87 1003.37 1003.90 1004.45 1005.00 1005.57 1006.13 1006.70 1007.26 1007.83 1008.39
1004.61 1004.08 1003.58 1003.10 1002.64 1002.19 1001.76 1001.35 1000.95 1000.59 1000.26 999.99 999.76 999.60 999.51 999.47 999.48 999.53 999.61 999.71 999.80 999.90 999.99 1000.08 1000.17 1000.27 1000.40 1000.57 1000.79 1001.06 1001.39 1001.77 1002.20 1002.67 1003.18 1003.71 1004.26 1004.81 1005.37 1005.94 1006.50 1007.08 1007.65
1004.56 1004.06 1003.59 1003.13 1002.69 1002.25 1001.82 1001.38 1000.96 1000.56 1000.20 999.89 999.64 999.46 999.35 999.32 999.34 999.42 999.53 999.65 999.78 999.90 1000.00 1000.09 1000.17 1000.25 1000.35 1000.47 1000.63 1000.84 1001.11 1001.42 1001.78 1002.19 1002.63 1003.10 1003.59 1004.09 1004.60 1005.13 1005.67 1006.22 1006.78
1004.48 1004.03 1003.61 1003.21 1002.80 1002.39 1001.97 1001.54 1001.12 1000.71 1000.34 1000.01 999.75 999.57 999.47 999.44 999.49 999.60 999.74 999.90 1000.06 1000.21 1000.34 1000.44 1000.51 1000.58 1000.64 1000.71 1000.81 1000.95 1001.12 1001.34 1001.60 1001.90 1002.23 1002.59 1002.98 1003.39 1003.81 1004.26 1004.73 1005.23 1005.74
1004.39 1004.01 1003.66 1003.32 1002.97 1002.61 1002.23 1001.83 1001.43 1001.04 1000.68 1000.37 1000.12 999.96 999.87 999.88 999.95 1000.09 1000.26 1000.46 1000.65 1000.82 1000.96 1001.07 1001.13 1001.17 1001.20 1001.21 1001.23 1001.28 1001.35 1001.45 1001.58 1001.75 1001.95 1002.17 1002.43 1002.70 1003.01 1003.35 1003.72 1004.12 1004.57
1004.31 1004.02 1003.75 1003.49 1003.22 1002.92 1002.60 1002.27 1001.91 1001.57 1001.24 1000.97 1000.75 1000.62 1000.56 1000.59 1000.69 1000.85 1001.05 1001.27 1001.47 1001.65 1001.79 1001.88 1001.93 1001.93 1001.90 1001.84 1001.78 1001.73 1001.68 1001.66 1001.66 1001.69 1001.74 1001.82 1001.93 1002.07 1002.24 1002.44 1002.69 1002.99 1003.34
1004.26 1004.06 1003.89 1003.72 1003.53 1003.32 1003.08 1002.82 1002.53 1002.25 1001.98 1001.76 1001.59 1001.49 1001.47 1001.52 1001.64 1001.82 1002.02 1002.23 1002.42 1002.58 1002.69 1002.75 1002.75 1002.70 1002.61 1002.48 1002.33 1002.18 1002.04 1001.90 1001.78 1001.69 1001.61 1001.56 1001.53 1001.53 1001.57 1001.64 1001.76 1001.94 1002.17
Thickness
5779 5775 5772 5769 5767 5764 5760 5757 5755 5753 5751 5749 5747 5745 5743 5741 5739 5737 5735 5734 5731 5729 5728 5726 5724 5723 5721 5719 5718 5715 5712 5709 5703 5706 5708 5709 5709 5709 5709 5709 5709 5708 5707
5775 5771 5767 5764 5761 5758 5755 5752 5750 5748 5746 5745 5743 5740 5738 5736 5734 5732 5729 5728 5726 5723 5722 5720 5719 5718 5715 5714 5712 5710 5708 5706 5701 5699 5700 5700 5701 5702 5702 5701 5701 5701 5701
5771 5766 5762 5758 5755 5752 5749 5747 5745 5743 5741 5739 5737 5735 5733 5731 5729 5727 5724 5722 5720 5719 5717 5715 5713 5711 5709 5708 5706 5704 5702 5702 5698 5694 5693 5693 5693 5694 5693 5692 5693 5692 5693
5766 5760 5756 5753 5750 5747 5744 5742 5740 5738 5735 5733 5732 5730 5728 5726 5724 5721 5719 5717 5715 5713 5712 5710 5708 5706 5703 5702 5701 5699 5697 5694 5691 5688 5687 5686 5685 5686 5684 5682 5681 5682 5683
5760 5754 5750 5747 5745 5741 5738 5736 5734 5731 5730 5727 5725 5723 5721 5720 5718 5715 5713 5711 5708 5706 5705 5704 5703 5702 5701 5698 5696 5693 5690 5687 5684 5681 5679 5677 5676 5676 5675 5674 5673 5673 5674
5753 5748 5744 5741 5737 5735 5732 5730 5727 5724 5722 5720 5717 5715 5713 5713 5711 5709 5707 5704 5702 5699 5697 5697 5697 5696 5695 5694 5692 5690 5687 5683 5679 5676 5673 5671 5670 5670 5669 5668 5665 5663 5662
5745 5741 5738 5735 5731 5728 5727 5722 5719 5717 5714 5712 5710 5708 5706 5705 5704 5703 5701 5697 5695 5693 5691 5690 5690 5690 5687 5685 5684 5683 5682 5680 5678 5673 5669 5667 5665 5665 5664 5661 5659 5657 5656
5738 5735 5732 5728 5725 5722 5718 5715 5712 5710 5707 5704 5702 5701 5698 5698 5697 5695 5693 5690 5687 5686 5685 5683 5682 5680 5680 5678 5676 5674 5673 5672 5671 5669 5666 5665 5664 5662 5660 5657 5655 5652 5652
5730 5727 5724 5721 5717 5714 5711 5708 5706 5703 5700 5698 5696 5694 5691 5690 5689 5688 5686 5682 5680 5678 5678 5677 5675 5673 5673 5671 5667 5665 5664 5664 5665 5664 5662 5661 5659 5657 5655 5650 5647 5643 5642
5724 5721 5718 5715 5711 5707 5704 5702 5699 5696 5694 5692 5689 5687 5685 5682 5682 5680 5678 5674 5671 5670 5669 5669 5668 5666 5665 5663 5660 5657 5655 5656 5656 5655 5654 5653 5651 5650 5648 5645 5642 5637 5635
5719 5715 5711 5708 5705 5701 5697 5694 5692 5689 5686 5683 5681 5679 5677 5675 5674 5672 5669 5666 5663 5661 5660 5660 5660 5659 5658 5656 5654 5652 5651 5650 5648 5646 5644 5643 5642 5641 5640 5639 5637 5633 5630
5710 5706 5703 5700 5698 5695 5690 5687 5684 5681 5677 5674 5671 5669 5668 5667 5666 5664 5661 5659 5657 5654 5653 5653 5652 5652 5650 5648 5647 5646 5645 5642 5639 5637 5635 5634 5633 5633 5633 5632 5630 5629 5628
5700 5697 5694 5691 5688 5685 5681 5678 5674 5672 5668 5665 5662 5660 5659 5658 5657 5656 5653 5651 5649 5647 5646 5646 5645 5644 5642 5641 5639 5638 5636 5633 5631 5628 5627 5626 5626 5626 5625 5624 5623 5622 5621
5689 5686 5684 5681 5678 5675 5672 5670 5666 5663 5660 5657 5654 5651 5650 5648 5647 5645 5643 5641 5639 5638 5637 5636 5636 5635 5634 5632 5631 5629 5627 5625 5623 5621 5620 5620 5619 5618 5617 5616 5614 5614 5612
5679 5676 5674 5671 5668 5666 5664 5661 5659 5657 5655 5651 5648 5645 5642 5639 5639 5637 5634 5633 5631 5629 5627 5625 5624 5623 5622 5621 5620 5618 5617 5616 5614 5613 5612 5612 5611 5611 5610 5609 5607 5605 5604
5669 5666 5664 5661 5659 5657 5654 5652 5652 5650 5649 5647 5644 5640 5637 5634 5632 5630 5628 5626 5624 5622 5619 5616 5615 5614 5613 5611 5610 5609 5608 5607 5606 5605 5604 5603 5603 5603 5602 5602 5600 5599 5598
5661 5658 5656 5654 5651 5648 5646 5643 5640 5640 5639 5638 5635 5632 5629 5626 5624 5621 5619 5617 5616 5613 5610 5608 5607 5606 5605 5603 5602 5601 5600 5600 5599 5597 5597 5596 5596 5596 5595 5595 5594 5593 5592
5653 5651 5648 5646 5644 5641 5639 5636 5633 5630 5627 5625 5625 5623 5621 5618 5616 5613 5611 5607 5605 5603 5601 5600 5599 5598 5597 5596 5595 5594 5594 5593 5592 5591 5590 5590 5589 5589 5589 5589 5589 5588 5587
5644 5641 5640 5638 5636 5634 5631 5628 5625 5622 5619 5616 5615 5614 5612 5609 5607 5605 5602 5598 5596 5594 5593 5592 5591 5590 5589 5588 5588 5587 5586 5585 5585 5584 5584 5583 5583 5583 5583 5583 5583 5583 5582
5635 5635 5633 5630 5628 5625 5623 5619 5616 5613 5610 5608 5606 5605 5603 5600 5597 5594 5592 5590 5588 5587 5586 5584 5583 5582 5581 5581 5580 5579 5578 5577 5577 5577 5577 5577 5577 5577 5577 5578 5578 5578 5577
5626 5625 5625 5621 5619 5617 5614 5611 5608 5605 5603 5601 5599 5599 5596 5592 5590 5588 5585 5583 5582 5580 5579 5577 5576 5574 5573 5573 5572 5571 5570 5570 5569 5569 5569 5570 5570 5571 5572 5573 5573 5573 5573
5618 5617 5615 5613 5610 5608 5606 5604 5601 5598 5595 5593 5591 5589 5587 5584 5582 5580 5578 5577 5575 5574 5573 5571 5568 5567 5566 5564 5564 5563 5562 5562 5562 5562 5562 5563 5563 5564 5565 5566 5567 5568 5568
5611 5609 5607 5605 5603 5601 5598 5595 5592 5589 5587 5585 5583 5581 5579 5576 5574 5573 5572 5570 5568 5566 5565 5563 5561 5559 5558 5557 5556 5555 5554 5554 5555 5555 5554 5555 5556 5558 5559 5560 5561 5562 5562
5603 5602 5599 5597 5595 5592 5590 5587 5584 5582 5580 5578 5576 5574 5572 5569 5567 5566 5565 5563 5560 5559 5557 5555 5553 5553 5552 5550 5549 5549 5548 5548 5548 5548 5549 5550 5551 5552 5553 5555 5556 5557 5557
5596 5594 5592 5590 5587 5584 5582 5579 5576 5574 5572 5570 5569 5567 5565 5563 5560 5558 5557 5555 5553 5551 5550 5548 5547 5546 5545 5543 5542 5542 5542 5542 5542 5543 5544 5545 5546 5547 5548 5550 5550 5551 5552
5588 5587 5585 5582 5579 5577 5574 5571 5568 5566 5564 5562 5560 5558 5557 5555 5553 5551 5549 5547 5545 5543 5542 5541 5539 5538 5537 5536 5535 5535 5535 5536 5537 5538 5539 5540 5542 5543 5544 5545 5546 5547 5547